Terminal Aerodrome Forecast
Issued by NWS

Home | Current Version | Previous Version | Text Only | Print | Product List | Glossary Off
Versions: 1 2 3 4 5 6 7 8 9 10 11 12 13 14

034
FTUS41 KCLE 220525
TAFFDY
TAF
KFDY 220525Z 2206/2306 27005KT P6SM SKC
     FM221900 VRB03KT P6SM SKC=

USA.gov is the U.S. government's official web portal to all federal, state and local government web resources and services.